Theta_e
342 343 345 345 345 344 343 344 343 343 340 338 338 338 338 337 337 337 336 335 335 335 335 334 334 333 333 333 333 333 333 333 333 333 333 334 333 333 333 333 333 332 333 332 331 331 328 327 326 324 322 320
339 341 344 343 343 343 343 342 343 341 339 338 337 337 337 336 336 336 335 335 335 335 334 334 333 333 332 333 333 333 332 331 331 331 331 332 332 332 332 332 331 331 332 331 330 330 328 327 325 324 322 318
337 336 340 341 340 341 342 341 341 340 336 336 335 334 332 331 332 332 333 335 334 334 334 333 333 333 333 333 333 332 331 331 330 330 330 331 331 331 331 330 330 330 330 330 329 328 326 324 323 322 320 318
338 333 333 337 338 338 339 339 338 335 333 330 328 327 327 326 325 324 324 324 325 329 329 329 327 332 333 332 332 331 331 330 329 330 330 329 329 328 327 327 327 327 328 329 327 326 324 322 320 317 317 316
338 335 332 333 332 334 336 335 334 332 326 323 323 323 322 323 322 322 322 322 322 322 322 322 324 331 331 331 330 330 330 329 328 329 328 327 326 326 324 323 322 323 325 326 326 324 321 318 316 315 315 315
339 335 335 337 336 336 333 329 327 327 326 325 322 320 322 322 321 322 322 322 325 321 322 322 322 325 330 330 330 329 329 328 328 327 326 325 325 324 322 318 311 312 317 320 321 320 317 315 314 314 314 314
338 337 338 337 337 334 330 329 329 328 326 324 322 321 321 321 322 322 321 321 321 320 319 321 321 324 327 329 328 328 328 327 327 326 324 323 322 321 317 309 307 308 309 311 315 314 314 313 312 312 312 312
338 338 339 338 337 335 333 333 333 330 327 324 323 323 322 322 322 321 320 321 321 320 318 319 320 322 324 325 324 324 325 325 325 323 322 320 317 312 309 306 306 306 306 308 310 311 312 312 311 311 310 310
337 338 338 338 338 336 335 336 335 333 329 325 325 326 326 324 321 320 319 318 317 317 316 316 316 317 317 317 316 316 314 314 313 310 308 307 306 304 305 305 305 306 306 306 308 309 310 310 310 309 309 309
337 338 337 338 338 337 337 337 336 335 332 328 327 329 327 322 320 318 318 317 316 315 314 313 312 312 312 312 313 313 311 308 308 309 307 305 305 304 304 304 305 305 305 305 306 307 308 309 308 308 308 308
338 338 338 338 338 337 336 337 336 335 334 331 329 330 325 322 319 317 317 316 315 314 312 311 310 309 309 310 309 308 307 307 308 308 306 305 304 303 304 303 303 303 304 304 305 306 306 306 307 307 307 308
338 338 337 337 335 337 335 336 335 335 335 333 332 331 327 322 320 317 316 315 314 313 311 309 308 308 308 307 307 306 306 307 309 306 305 304 303 303 303 303 302 302 303 303 304 304 305 306 306 307 308 309
337 337 337 337 337 336 332 336 335 335 334 333 333 332 329 325 321 318 317 316 314 312 310 310 309 308 307 306 305 305 307 310 307 305 304 303 302 301 300 300 300 300 300 301 302 302 302 303 306 308 308 309
335 335 335 336 336 337 333 336 335 333 334 333 333 332 330 328 324 320 319 317 314 311 310 311 310 309 308 306 305 307 310 309 306 304 303 302 301 299 299 299 299 299 298 299 300 300 300 300 303 306 307 307
334 333 333 334 335 336 336 337 335 333 334 333 332 332 331 331 327 323 322 320 315 312 312 312 310 309 310 308 309 311 310 309 307 305 303 302 299 298 298 297 297 297 297 296 298 298 298 298 301 302 304 305
332 332 332 331 333 334 335 336 336 335 334 331 333 332 332 331 330 326 326 324 319 315 314 314 311 311 311 310 311 311 309 308 307 305 304 301 299 297 297 296 295 296 295 294 295 296 296 296 297 298 300 301
331 331 331 330 330 331 333 334 334 334 334 333 333 332 332 331 331 329 327 327 323 319 320 317 313 312 312 312 312 310 309 308 306 304 302 300 298 296 296 295 294 295 293 293 293 294 294 294 294 295 296 296
329 330 330 329 330 328 331 332 332 333 334 333 333 333 332 332 331 331 329 328 327 325 325 320 315 314 314 314 312 310 309 307 305 303 301 300 298 298 295 294 293 293 292 291 291 292 292 292 292 293 294 294
327 327 329 328 328 328 328 329 331 332 333 333 333 333 333 333 332 331 331 329 329 328 327 321 317 316 316 314 312 310 308 307 305 303 301 299 297 296 294 293 293 292 291 291 291 291 292 291 291 291 291 293
326 327 328 328 325 328 327 326 327 329 332 332 333 333 333 333 332 331 332 330 329 328 327 324 318 318 317 314 311 309 308 307 304 303 301 300 298 295 294 293 292 291 290 290 290 290 290 291 292 291 290 291
324 325 325 326 327 328 326 326 326 326 328 331 331 332 332 332 332 332 332 331 330 329 327 326 322 319 317 314 312 309 308 307 306 303 301 299 298 297 294 293 291 290 290 290 290 290 290 290 291 290 290 290
323 323 322 322 324 323 326 326 326 326 326 327 330 331 332 332 332 331 332 331 331 329 328 327 325 320 317 314 312 310 309 307 306 304 301 299 298 297 295 293 291 290 290 291 290 289 289 289 289 289 290 291
322 321 319 318 319 320 323 324 325 326 326 326 327 328 330 330 331 330 332 330 330 329 328 327 326 321 318 314 312 310 308 307 305 303 302 299 298 297 295 294 292 291 291 291 290 289 288 288 288 289 289 289
320 318 318 317 313 314 316 319 321 323 325 325 325 325 327 328 330 330 330 330 329 330 328 327 325 322 319 315 312 310 308 306 304 302 301 299 297 296 295 294 293 293 291 290 289 288 287 287 287 287 288 287
321 320 317 315 317 318 316 315 316 319 320 322 324 324 326 326 328 330 329 329 329 330 326 328 325 323 319 316 313 311 308 307 305 303 301 300 298 296 294 293 293 292 291 289 288 287 286 286 287 289 286 286
321 321 321 320 319 319 315 313 314 316 317 320 320 321 322 324 327 329 330 326 328 328 328 327 325 322 319 317 314 312 310 307 305 303 301 299 297 296 294 293 293 292 291 289 287 285 285 286 285 286 285 286
320 320 318 318 312 315 309 309 312 312 315 315 318 319 320 321 324 326 329 329 328 329 328 327 325 323 321 317 314 312 310 307 305 303 301 299 297 295 295 294 294 292 293 289 288 288 285 282 282 285 284 284
316 313 310 309 308 309 312 309 307 310 309 313 314 317 318 320 322 324 325 327 328 328 328 327 326 324 321 318 315 314 310 307 305 303 301 299 298 296 293 292 292 293 293 291 288 285 286 283 283 280 281 282
310 310 308 307 307 306 306 307 308 308 309 312 314 317 318 320 321 323 323 325 327 324 326 325 325 323 321 319 316 314 311 308 306 303 301 300 298 297 295 292 292 292 293 292 293 291 285 283 284 283 281 282
311 311 310 308 308 307 306 308 307 310 312 311 312 316 315 314 320 321 322 324 326 326 324 323 323 323 321 319 317 315 313 310 306 303 301 300 299 297 297 295 293 291 293 294 292 293 295 289 288 285 284 283
310 310 310 310 311 310 309 309 308 306 306 309 307 310 312 314 315 319 319 319 323 322 322 324 322 321 321 320 317 314 313 310 307 305 302 300 300 299 299 297 294 292 292 294 293 293 294 295 292 289 284 281
Wind_Speed
9 9 8 9 11 11 10 12 13 14 13 13 14 13 13 12 11 11 11 12 12 12 12 12 12 13 14 14 14 15 15 14 15 15 15 14 14 13 12 14 15 16 15 14 12 11 14 14 12 11 8 6
10 9 9 10 10 10 10 10 13 13 12 12 12 12 11 10 9 10 11 11 12 12 11 11 11 13 12 13 14 15 15 15 14 14 14 14 13 12 13 15 16 15 15 15 14 13 12 12 12 10 8 5
8 10 11 11 10 10 10 11 12 13 12 11 10 12 11 10 10 9 10 10 10 8 8 9 9 11 12 13 14 15 15 15 15 14 14 14 13 12 14 15 15 15 15 14 14 13 12 13 13 12 7 4
6 8 12 12 11 11 11 12 13 13 12 12 12 12 13 12 10 10 9 11 9 11 10 10 7 9 10 13 14 14 14 14 14 14 13 13 13 13 14 14 15 15 15 14 14 13 13 13 12 7 5 5
6 7 11 10 12 12 13 13 14 13 13 12 12 11 12 11 8 6 6 7 6 9 6 8 9 9 11 12 12 13 13 14 14 13 13 14 13 13 12 10 11 13 13 13 14 13 12 13 8 6 6 6
5 6 8 7 8 9 10 11 12 11 9 9 8 11 9 7 7 6 6 6 7 6 7 8 10 10 10 11 9 11 13 14 14 13 14 14 13 12 10 10 7 7 10 13 11 12 13 9 6 6 6 6
6 7 6 7 8 8 10 10 10 8 8 7 8 7 7 7 6 7 6 6 7 7 10 9 11 11 11 10 10 10 12 14 13 13 13 13 11 9 10 7 6 6 6 7 11 10 8 6 6 6 6 6
6 6 6 6 6 6 7 7 7 8 8 8 8 8 7 6 7 6 6 9 13 10 7 8 11 12 13 12 11 12 9 11 11 13 11 10 9 7 5 6 6 6 6 6 6 6 6 6 6 6 5 5
7 7 6 6 6 7 6 7 7 7 7 8 9 8 7 7 7 7 7 7 6 6 7 6 6 6 6 7 7 9 7 7 6 6 6 6 6 5 5 6 6 5 6 6 6 6 6 6 6 6 6 5
8 8 7 7 7 7 6 6 7 7 7 7 8 6 7 8 8 7 7 6 6 6 6 7 6 6 6 6 6 6 7 7 7 6 7 7 7 6 6 6 5 5 5 6 6 6 6 6 6 6 6 6
8 8 7 8 8 8 6 6 7 7 7 7 7 6 8 9 7 7 7 7 7 7 6 6 6 6 6 6 6 6 6 6 5 6 7 7 7 7 7 6 6 6 5 5 6 6 6 6 6 6 6 6
8 8 8 8 8 8 8 8 7 7 7 7 7 6 7 7 7 8 7 7 6 7 5 6 6 6 6 6 6 5 3 4 4 4 5 5 5 6 6 7 6 6 6 6 5 6 6 6 6 6 5 6
8 8 9 8 9 8 9 8 8 8 7 7 7 6 7 8 7 6 7 7 7 6 6 5 5 5 6 6 6 5 3 3 4 4 5 5 5 5 6 5 6 6 6 6 6 6 6 5 6 6 6 6
8 9 9 9 9 9 9 8 8 8 7 7 7 7 7 9 8 8 8 8 7 8 7 6 6 5 6 6 6 5 3 4 5 6 5 5 5 6 6 6 5 6 6 6 6 6 6 6 6 5 5 6
9 9 8 9 8 8 9 9 9 8 8 7 7 8 8 9 9 9 8 8 9 7 8 7 7 7 6 6 6 5 5 5 6 6 6 5 5 5 6 6 5 6 7 6 6 5 6 5 6 6 5 5
9 9 9 8 8 8 9 9 8 9 8 8 8 8 9 9 9 9 9 10 9 9 8 8 8 8 7 7 6 5 6 6 6 6 5 5 4 4 6 6 5 5 7 6 6 6 6 5 6 5 5 5
9 8 8 8 8 8 9 8 8 9 9 9 8 8 9 9 10 9 9 9 11 9 9 8 9 8 9 7 6 6 7 7 7 7 6 6 5 5 5 7 6 5 6 7 6 6 5 6 6 5 5 5
8 9 8 8 7 7 8 8 8 9 8 8 8 8 9 9 10 9 9 10 10 9 8 9 9 9 8 7 7 7 8 8 7 7 7 7 6 5 6 7 6 7 7 6 6 6 5 6 5 6 6 5
9 8 8 8 7 8 7 7 8 7 8 8 8 8 9 10 9 10 9 10 10 10 9 9 9 9 9 8 8 8 7 8 6 7 9 7 7 5 5 5 5 6 7 7 7 6 6 6 6 6 6 6
9 9 9 8 8 7 7 6 7 7 8 8 7 8 8 10 9 10 10 10 10 9 9 8 9 9 8 9 8 8 7 8 8 7 7 7 9 8 6 6 4 4 6 6 7 6 6 6 6 6 6 6
6 8 9 9 9 8 8 7 7 6 6 7 8 7 8 9 9 9 10 10 10 9 9 8 8 8 9 10 10 9 8 8 7 8 8 8 7 7 8 8 7 4 5 6 5 6 6 5 6 6 6 6
8 7 8 7 8 8 8 8 7 7 7 7 8 8 8 9 9 9 9 10 9 9 9 9 8 8 9 9 9 10 9 9 8 7 8 9 6 6 8 8 8 6 5 5 5 6 5 6 6 5 6 5
6 5 5 6 7 7 8 7 7 8 8 7 7 8 9 10 9 9 10 9 9 9 8 8 8 9 10 9 9 9 9 9 9 8 7 9 8 4 3 7 8 8 7 5 5 5 4 4 5 5 5 5
7 6 7 7 4 6 7 8 8 7 8 7 7 7 8 9 9 9 9 9 9 10 9 9 8 9 9 9 10 10 10 9 9 11 9 9 10 9 5 4 6 8 9 7 6 5 5 4 4 4 5 5
10 10 7 5 9 10 8 8 7 8 7 8 8 7 8 8 8 9 10 9 9 10 10 10 9 9 10 10 10 11 12 12 13 12 12 10 9 12 10 6 6 7 10 11 5 4 4 5 3 4 4 4
11 11 12 12 12 9 7 7 7 8 7 8 7 8 7 6 7 9 9 9 8 9 10 10 10 10 11 11 10 10 11 13 13 13 11 9 8 6 10 8 9 9 11 4 8 8 3 3 3 3 3 3
12 10 7 8 5 7 4 3 4 4 4 5 7 7 7 7 7 8 9 10 10 9 9 10 10 10 10 11 10 10 8 8 9 11 14 14 13 10 6 6 8 10 7 5 5 5 7 3 4 1 1 1
6 5 3 3 3 4 5 5 3 4 4 5 6 7 7 7 7 8 8 8 9 10 10 10 11 11 11 11 10 11 11 11 10 9 9 10 10 11 11 7 10 11 7 7 13 6 3 4 3 2 8 7
5 5 4 3 3 3 2 1 3 4 6 6 6 6 8 9 7 7 8 9 10 8 10 10 10 11 11 12 12 11 11 12 13 13 12 13 12 13 13 10 8 10 8 8 7 6 8 2 1 7 3 8
7 7 8 7 7 7 6 8 7 12 14 10 10 11 5 5 8 7 7 7 9 13 10 9 10 10 11 12 11 12 11 11 11 14 14 14 13 14 13 15 12 11 10 8 11 8 2 5 7 7 6 9
8 8 8 11 11 9 10 10 9 5 3 7 5 4 7 7 7 9 9 7 7 7 11 13 11 11 11 12 11 11 10 11 13 13 14 12 13 14 12 10 13 15 13 7 9 9 8 4 3 8 10 7
Wind_Direction
139 135 129 129 134 135 133 128 123 120 118 117 115 114 111 107 107 108 108 106 108 107 109 113 111 115 114 110 109 111 109 107 102 101 98 85 81 77 69 60 55 54 55 58 63 65 78 79 76 73 72 70
144 140 131 127 131 136 136 130 123 120 118 113 110 107 105 103 104 109 109 108 112 114 110 110 111 111 113 116 113 110 107 108 105 101 99 89 86 80 70 61 56 53 54 57 58 60 58 56 56 57 60 66
148 143 133 131 132 136 134 124 120 114 110 109 102 103 97 90 83 81 85 91 95 91 92 100 108 112 113 115 114 112 110 109 109 109 103 91 88 79 69 63 57 55 54 55 57 56 55 54 52 48 42 32
144 143 138 134 132 135 131 126 121 119 116 114 112 109 105 99 90 82 77 77 79 82 78 78 86 100 111 117 116 115 114 113 112 111 99 93 86 77 71 64 57 53 54 55 57 55 54 53 48 41 33 27
146 150 143 135 133 134 132 130 129 126 124 121 120 116 112 106 103 97 91 83 86 79 81 84 94 109 112 115 113 116 117 116 115 109 100 94 88 79 68 56 52 51 51 53 55 55 52 51 45 34 31 25
150 138 148 138 135 136 133 133 133 134 137 135 133 128 123 123 118 113 108 109 101 100 95 90 93 101 111 111 109 116 116 115 115 109 101 94 86 73 55 49 49 47 51 52 53 54 54 51 44 33 32 27
155 155 152 145 139 136 143 145 145 145 144 143 144 143 137 129 129 129 126 124 124 120 110 108 107 111 113 107 105 113 120 121 115 104 99 92 75 57 50 49 45 47 51 53 53 55 55 54 45 41 34 30
156 163 155 152 146 144 146 150 154 153 154 153 154 152 145 140 137 127 124 125 122 118 116 115 116 119 118 119 121 124 123 120 114 106 85 66 59 52 47 49 46 50 48 55 61 64 61 59 50 46 36 32
164 166 159 158 153 155 159 162 161 162 164 165 164 160 153 147 138 135 134 134 129 128 129 126 128 128 132 134 135 132 131 131 121 102 93 85 75 69 67 62 53 53 54 51 62 66 63 61 55 49 38 33
166 166 168 166 162 163 169 169 166 169 172 175 173 167 150 145 142 142 140 142 138 136 139 138 142 143 143 143 143 150 144 148 142 125 120 114 109 106 94 87 76 64 67 67 64 67 63 61 55 49 39 38
166 176 173 170 167 169 173 173 169 179 181 184 181 160 152 148 151 147 148 146 148 147 150 149 151 151 153 150 153 166 150 153 145 137 132 128 129 126 115 106 97 84 74 74 82 74 69 65 61 51 45 44
172 174 172 172 169 176 175 174 178 181 183 184 187 160 158 150 152 152 151 151 153 155 154 159 158 154 150 153 161 166 157 132 129 129 121 123 119 113 109 109 104 94 84 78 79 83 75 74 66 55 51 53
173 174 175 172 176 180 172 182 180 180 179 183 189 167 161 152 154 157 153 157 161 158 162 162 164 159 158 161 168 164 159 112 119 96 95 97 102 100 101 98 90 87 76 73 68 78 75 71 65 60 55 53
174 177 177 178 179 180 175 184 180 176 182 183 179 181 166 165 162 166 163 162 164 163 169 167 164 163 168 170 177 166 148 132 117 116 103 102 105 107 107 100 102 95 83 71 70 70 78 69 70 64 59 52
176 174 177 179 181 179 183 181 178 181 183 182 183 183 173 171 169 167 169 166 166 171 167 171 167 171 171 178 185 167 139 133 126 120 123 126 125 120 114 109 107 103 95 88 81 82 81 83 83 75 65 62
176 180 177 172 177 183 185 177 181 182 183 187 184 179 181 177 173 174 173 170 171 172 172 173 175 172 175 186 180 158 139 134 128 128 120 111 111 116 112 111 103 104 104 97 101 97 92 88 85 82 77 71
181 182 181 177 177 177 179 181 180 185 188 188 185 182 183 183 178 179 176 174 174 175 176 174 175 177 181 178 166 155 141 134 127 121 119 115 119 113 108 110 111 103 102 109 109 101 103 95 87 85 82 73
181 184 186 185 180 175 175 180 183 187 186 187 189 185 187 185 184 181 182 177 177 177 175 175 178 178 180 170 162 151 143 141 142 138 138 140 131 133 131 130 137 125 114 112 108 103 108 95 98 92 80 75
186 184 182 186 186 186 180 180 184 186 186 187 188 186 190 189 187 187 183 184 179 183 176 174 177 179 175 162 155 151 154 145 148 148 148 149 136 136 130 130 141 131 130 128 118 118 111 106 100 82 88 77
185 181 181 183 186 186 187 186 186 184 187 186 187 189 190 193 188 189 187 186 185 184 183 177 175 176 162 157 150 150 152 147 154 158 150 155 149 143 147 136 134 129 126 124 121 120 107 106 96 97 90 89
185 173 176 181 184 187 185 190 194 185 182 184 188 192 193 194 192 190 191 190 187 185 186 183 179 170 165 159 154 156 159 161 159 158 156 158 165 156 150 146 139 127 120 118 116 116 110 105 103 99 105 103
183 181 173 177 185 188 191 194 191 191 182 188 188 188 195 192 195 195 191 192 189 187 188 185 181 170 167 163 158 159 162 166 161 164 161 159 165 158 150 150 146 139 119 110 106 96 103 110 101 106 103 103
181 176 180 175 177 189 195 195 196 190 196 191 182 191 189 190 193 195 194 189 190 188 186 188 184 173 172 166 163 160 165 160 163 163 170 162 151 136 141 153 146 138 128 108 96 90 80 86 97 104 100 101
184 183 189 188 189 192 198 196 194 199 197 190 192 184 186 189 190 190 196 187 189 191 187 188 185 178 175 175 166 165 165 166 168 168 168 172 157 146 115 116 137 136 123 98 85 85 73 75 89 88 103 102
188 194 196 201 201 205 190 186 190 199 199 194 194 188 186 185 189 190 195 194 182 196 189 188 183 179 180 181 176 174 175 172 175 176 175 167 163 154 150 152 156 153 134 125 82 52 66 56 52 84 93 102
192 197 199 195 203 197 182 182 184 199 200 198 193 190 185 182 187 192 197 200 191 193 190 187 183 184 185 182 184 182 181 178 177 174 170 156 151 167 159 162 170 169 136 152 160 147 133 32 40 67 76 92
198 199 197 194 192 182 183 211 194 182 188 189 192 196 191 188 188 193 199 200 198 198 196 190 183 187 182 187 179 173 170 177 179 180 174 170 164 162 170 153 175 182 197 136 121 111 107 185 146 263 57 324
195 173 147 134 126 160 164 189 179 179 163 187 188 204 197 200 192 198 202 198 202 201 203 195 190 184 183 184 181 181 171 171 180 180 183 177 171 161 156 169 184 197 185 144 140 167 196 163 143 147 235 189
148 124 124 107 69 93 100 51 155 183 217 199 197 194 203 207 190 201 208 204 202 210 202 196 192 184 184 180 183 187 183 178 180 180 182 180 171 173 169 171 181 196 202 191 214 137 131 97 241 225 169 139
156 166 164 160 163 175 188 200 188 202 208 198 199 205 194 197 198 199 206 205 214 205 204 201 193 190 183 185 185 189 187 181 177 185 183 185 178 183 185 170 171 191 211 206 219 236 263 180 178 182 180 139
165 171 179 185 192 194 197 203 221 224 217 201 215 185 195 202 199 200 207 215 210 210 204 195 190 191 188 185 186 187 184 186 188 187 189 184 186 188 180 174 181 187 193 197 241 239 246 261 248 143 142 188